Location: Tel Aviv
(32.0670°N, 34.7670°E)
Time: 03:09:29
(UTC+03:00)

Vanguard 2 - Pass Details

Date: 25 January 2022
Orbit: 552 x 2935 km, 32.9° (Epoch: 26 May)

Event Time Altitude Azimuth Distance (km) Brightness Sun altitude
Rises 01:10:52 0° 285° (WNW) 5,781 - -68.2°
Reaches altitude 10° 01:14:18 10° 283° (WNW) 5,023 - -67.6°
Maximum altitude 01:29:47 65° 206° (SSW) 3,085 - -64.7°
Exits shadow 01:41:24 27° 135° (SE) 4,418 11.3 -62.4°
Drops below altitude 10° 01:47:11 10° 129° (SE) 5,546 12.0 -61.3°
Sets 01:51:12 0° 126° (SE) 6,386 12.4 -60.5°
